User: anonymous   Login
Location: Unspecified
(0.0000°N, 0.0000°E)
Time: 20:55:23
(UTC+00:00)
Language:

NOSS 8 (A) - Orbit

View from above orbital plane
View from above orbital plane
View from above satellite
View from above satellite

Ground track
Ground track

The orbit data is extracted from the following two-line orbital elements,

1 17997U 87043A   18111.81331172 0.00001500  00000-0  16055-3 0    02
2 17997  63.3144 353.8595 0896075  51.6441 308.3559 13.47937692    04
Epoch (UTC): 21 April 2018 19:31:10
Eccentricity: 0.0896075
inclination: 63.3144°
perigee height: 411 km
apogee height: 1748 km
right ascension of ascending node: 353.8595°
argument of perigee: 51.6441°
revolutions per day: 13.47937692
mean anomaly at epoch: 308.3559°
orbit number at epoch: 0

The dashed part of the orbit path shows where the satellite is in the earth's shadow,  

DLR